Content
SEND FEEDBACK

Daily
Averages
Monthly
Summary
United States of America

SOUTH LAKE TAHOE, CALIFORNIA


Home > North America > United States > California
Elevation: 1908 meters     Latitude: 38 53N     Longitude: 119 59W

WEATHER
 
SELECT A DAY
Number of Records: 174,391;   Date Range: 1/1/95 - 7/26/14
 
SHARE

PRINT THIS DATA

[ ← Previous Day ]
WEATHER ALMANAC - 10 FEBRUARY, 2013
[ Next Day → ]
[ °F ]   °C
Weather ElementAverageHighLow
Temperature-3.7 °C1.7 °C (1:53 pm)-11.7 °C (5:53 am)
Dewpoint-12.2 °C-9.4 °C (11:53 am)-15 °C (6:53 am)
Humidity54.7 %81 % (5:53 am)38 % (2:53 pm)
Barometer1019 hPa1021.3 hPa (7:53 am)1017.3 hPa (1:53 pm)
Wind Speed11.1 km/h22.2 km/h (11:53 am)
Wind Gust37 km/h (12:53 pm)
Weather ElementAverage
Visibility16.1 km
Wind DirectionENE (60.9 °)

Weather ElementTotal
Precipitation---
Heating Degree Days23.3 (Base 18.3)
Averaged from 22 records on 10 February, 2013
WEATHER CONDITIONS BREAKOUT
WIND DIRECTION BREAKOUT
WEATHER BY HOUR - 10 FEBRUARY, 2013
[ °F ]   °C
Local TimeTemperatureDewpointHumidityBarometerVisibilityWind DirectionWind SpeedGust SpeedPrecipitationEventsConditions
1:53 AM-9.4 °C-13.9 °C70 %1019 hPa16.1 kmSSW (210°)7.4 km/hClear
2:53 AM-9.4 °C-13.3 °C74 %1018.6 hPa16.1 kmSW (220°)5.6 km/hClear
3:53 AM-10 °C-13.3 °C77 %1018.3 hPa16.1 kmCalmClear
5:53 AM-11.7 °C-14.4 °C81 %1020.3 hPa16.1 kmCalmClear
6:53 AM-11.7 °C-15 °C77 %1020.7 hPa16.1 kmCalmClear
7:53 AM-11.7 °C-15 °C77 %1021.3 hPa16.1 kmSouth (190°)5.6 km/hClear
8:53 AM-6.7 °C-11.7 °C68 %1020 hPa16.1 kmSouth (180°)5.6 km/hClear
9:53 AM0.6 °C-10.6 °C43 %1017.6 hPa16.1 kmNNE (20°)16.7 km/h27.8 km/hClear
10:53 AM0.6 °C-10 °C46 %1018.3 hPa16.1 kmNorth (10°)13 km/h27.8 km/hClear
11:53 AM0 °C-9.4 °C50 %1018.6 hPa16.1 kmNNE (30°)22.2 km/h33.3 km/hClear
12:53 PM0.6 °C-10 °C46 %1017.6 hPa16.1 kmNNE (20°)20.4 km/h37 km/hClear
1:53 PM1.7 °C-11.1 °C39 %1017.3 hPa16.1 kmNNE (20°)20.4 km/h31.5 km/hClear
2:53 PM1.1 °C-11.7 °C38 %1017.6 hPa16.1 kmNorth (10°)16.7 km/h37 km/hClear
3:53 PM0.6 °C-11.7 °C40 %1018.3 hPa16.1 kmNorth (360°)14.8 km/h35.2 km/hClear
4:53 PM-0.6 °C-10.6 °C47 %1019 hPa16.1 kmNorth (10°)14.8 km/h25.9 km/hPartly Cloudy
5:53 PM-1.1 °C-11.1 °C47 %1019.6 hPa16.1 kmNNE (20°)13 km/hClear
6:53 PM-1.7 °C-11.7 °C47 %1020.3 hPa16.1 kmNNE (20°)18.5 km/h27.8 km/hClear
7:53 PM-1.7 °C-12.2 °C45 %1020.7 hPa16.1 kmNNE (20°)16.7 km/h29.6 km/hClear
8:53 PM-2.2 °C-12.2 °C47 %1019.6 hPa16.1 kmVariable9.3 km/hClear
9:53 PM-2.8 °C-12.8 °C47 %1017.9 hPa16.1 kmVariable5.6 km/hClear
10:53 PM-3.3 °C-12.8 °C49 %1017.6 hPa16.1 kmVariable7.4 km/hClear
11:53 PM-3.3 °C-12.8 °C49 %1018.3 hPa16.1 kmVariable9.3 km/hClear
Hourly data recorded from KTVL, located 0 kilometers away from South Lake Tahoe, California







STORIES FROM OUR PARTNERS